KINEIS-2D

Last updated on Fri Sep 11 2026 00:02:53 GMT+0000 (Coordinated Universal Time)

1 62930U 25028C 26253.41354021 .00000999 00000+0 15275-3 0 9994 2 62930 97.9211 304.1965 0001801 303.4501 56.6537 14.75899857 85283
UTC large
Height (km)
Speed (km/s)
/
Latitude / Longitude
Inclination (degrees)
Orbital Period (minutes)
Azimuth
Elevation
Range (km)
Doppler Factor

Next 0 passes for location: London (51.5072 / 0.1276)

No passes found over London.
KINEIS-2D